TimeCDT,TemperatureF,Dew PointF,Humidity,Sea Level PressureIn,VisibilityMPH,Wind Direction,Wind SpeedMPH,Gust SpeedMPH,PrecipitationIn,Events,Conditions,WindDirDegrees,DateUTC
12:53 AM,48.9,37.9,66,30.12,10.0,SE,10.4,-,N/A,,Partly Cloudy,140,2014-03-27 05:53:00
1:46 AM,50.0,39.0,66,30.10,10.0,SE,9.2,-,N/A,,Overcast,140,2014-03-27 06:46:00
1:53 AM,51.1,39.0,63,30.10,10.0,SE,10.4,-,N/A,,Overcast,140,2014-03-27 06:53:00
2:53 AM,51.1,42.1,71,30.07,10.0,SSE,12.7,-,N/A,,Overcast,150,2014-03-27 07:53:00
3:53 AM,51.1,43.0,74,30.04,10.0,SE,16.1,-,N/A,,Overcast,140,2014-03-27 08:53:00
4:53 AM,52.0,45.0,77,30.03,10.0,SE,11.5,-,N/A,,Overcast,140,2014-03-27 09:53:00
5:53 AM,52.0,46.0,80,30.02,10.0,SE,11.5,-,N/A,,Overcast,130,2014-03-27 10:53:00
6:53 AM,52.0,46.9,83,30.01,10.0,SE,11.5,-,N/A,,Overcast,140,2014-03-27 11:53:00
7:53 AM,54.0,48.9,83,30.02,10.0,SE,10.4,-,N/A,,Overcast,140,2014-03-27 12:53:00
8:16 AM,54.0,48.9,83,30.01,10.0,SE,13.8,-,N/A,,Overcast,140,2014-03-27 13:16:00
8:29 AM,55.0,50.0,83,30.02,10.0,SE,11.5,-,N/A,,Overcast,140,2014-03-27 13:29:00
8:53 AM,55.9,50.0,80,30.03,10.0,SE,11.5,-,N/A,,Overcast,140,2014-03-27 13:53:00
9:53 AM,57.9,52.0,81,30.03,10.0,SE,16.1,-,N/A,,Overcast,140,2014-03-27 14:53:00
10:53 AM,62.1,55.0,78,30.02,10.0,SE,18.4,-,N/A,,Overcast,140,2014-03-27 15:53:00
11:53 AM,64.9,57.0,75,30.01,10.0,SSE,13.8,-,N/A,,Overcast,160,2014-03-27 16:53:00
12:22 PM,64.9,57.9,78,29.99,10.0,SE,13.8,-,N/A,,Overcast,140,2014-03-27 17:22:00
12:53 PM,64.9,57.9,78,29.99,10.0,SSE,10.4,-,N/A,,Overcast,150,2014-03-27 17:53:00
1:53 PM,66.9,59.0,76,29.98,10.0,SSE,12.7,25.3,N/A,,Overcast,160,2014-03-27 18:53:00
2:53 PM,66.9,60.1,79,29.95,10.0,SSE,16.1,23.0,N/A,,Overcast,160,2014-03-27 19:53:00
3:53 PM,64.9,62.1,90,29.93,5.0,SSE,13.8,-,0.00,,Overcast,150,2014-03-27 20:53:00
4:10 PM,64.0,62.1,93,29.91,5.0,SSE,11.5,-,N/A,,Overcast,150,2014-03-27 21:10:00
4:53 PM,64.0,62.1,93,29.88,5.0,SE,13.8,-,0.00,Rain,Light Rain,140,2014-03-27 21:53:00
5:06 PM,64.0,62.1,93,29.87,4.0,SE,15.0,-,0.00,,Overcast,140,2014-03-27 22:06:00
5:53 PM,64.0,62.1,93,29.86,4.0,SE,17.3,-,0.00,Rain,Light Rain,140,2014-03-27 22:53:00
6:53 PM,64.0,62.1,93,29.85,4.0,SE,16.1,21.9,0.00,Rain,Light Rain,140,2014-03-27 23:53:00
7:20 PM,64.0,63.0,96,29.81,2.5,SE,16.1,24.2,0.17,Rain,Heavy Rain,140,2014-03-28 00:20:00
7:38 PM,63.0,63.0,100,29.78,5.0,SE,21.9,29.9,0.25,Rain,Light Rain,140,2014-03-28 00:38:00
7:53 PM,63.0,63.0,100,29.81,4.0,SSE,16.1,-,0.25,Rain,Light Rain,150,2014-03-28 00:53:00
8:32 PM,64.0,63.0,96,29.79,2.5,SE,17.3,-,0.07,Rain,Rain,140,2014-03-28 01:32:00
8:42 PM,64.0,63.0,96,29.84,4.0,WNW,16.1,23.0,0.07,Rain,Light Rain,300,2014-03-28 01:42:00
8:50 PM,64.4,62.6,94,29.86,1.8,NNW,9.2,21.9,0.20,Rain,Heavy Rain,340,2014-03-28 01:50:00
8:53 PM,64.0,63.0,96,29.87,1.5,North,8.1,21.9,0.24,Rain,Heavy Rain,350,2014-03-28 01:53:00
9:03 PM,63.0,63.0,100,29.85,1.5,NNW,9.2,-,0.12,Rain,Heavy Rain,330,2014-03-28 02:03:00
9:23 PM,63.0,63.0,100,29.87,2.5,Variable,3.5,-,0.36,Rain,Rain,0,2014-03-28 02:23:00
9:27 PM,63.0,63.0,100,29.87,3.0,East,5.8,-,0.37,Rain,Rain,90,2014-03-28 02:27:00
9:37 PM,63.0,63.0,100,29.87,3.0,ENE,4.6,-,0.38,Rain,Rain,60,2014-03-28 02:37:00
9:53 PM,63.0,63.0,100,29.86,4.0,East,9.2,-,0.41,Rain,Rain,100,2014-03-28 02:53:00
10:20 PM,63.0,63.0,100,29.88,10.0,SE,5.8,-,0.00,Rain,Light Rain,130,2014-03-28 03:20:00
10:24 PM,63.0,63.0,100,29.88,10.0,SSE,5.8,-,0.01,Rain,Light Rain,150,2014-03-28 03:24:00
10:53 PM,66.0,64.9,96,29.86,6.0,SE,10.4,-,0.04,Rain,Light Rain,140,2014-03-28 03:53:00
11:44 PM,66.9,64.9,93,29.83,10.0,South,16.1,23.0,0.02,,Overcast,180,2014-03-28 04:44:00
11:51 PM,66.2,64.4,94,29.84,10.0,South,11.5,23.0,0.02,,Overcast,180,2014-03-28 04:51:00
11:53 PM,66.9,64.9,93,29.85,10.0,South,12.7,23.0,0.02,,Overcast,180,2014-03-28 04:53:00